Weather History for Lambertville, MI

Change the Weather History Date:

Thursday, January 17, 2013

  Actual Average (KTOL) Record (KTOL)
Temperature  
Mean Temperature 30 °F 25 °F  
Max Temperature 40 °F 32 °F 64 °F (1952)
Min Temperature 21 °F 18 °F -17 °F (1982)
Degree Days  
Heating Degree Days 34 40  
Month to date heating degree days 671  
Since 1 July heating degree days 2996  
Cooling Degree Days 0 0  
Month to date cooling degree days 0  
Year to date cooling degree days 0  
Moisture  
Dew Point 22 °F    
Average Humidity 65    
Maximum Humidity 84    
Minimum Humidity 46    
Precipitation  
Precipitation 0.00 in 0.06 in 0.80 in (1969)
Month to date precipitation 1.20  
Year to date precipitation 1.20  
Snow  
Snow 0.00 in 0.40 in - ()
Month to date snowfall 6.1  
Since 1 July snowfall 15.6  
Snow Depth -    
Sea Level Pressure  
Sea Level Pressure 30.15 in    
Wind  
Wind Speed 7 mph (WNW)    
Max Wind Speed 16 mph    
Max Gust Speed 24 mph    
Visibility 9 miles    
Events      
T = Trace of Precipitation, MM = Missing Value Source: NWS Daily Summary

Daily Weather History Graph

Daily Weather History Graph

Search for Another Location

Airport:

Trip Planner

Search our weather history database for the weather conditions in past years. The results will help you decide how hot, cold, wet, or windy it might be!

Date:

Astronomy

Jan. 17, 2013 Rise Set
Actual Time 7:58 AM EST 5:31 PM EST
Civil Twilight 7:27 AM EST 6:02 PM EST
Nautical Twilight 6:53 AM EST 6:36 PM EST
Astronomical Twilight 6:20 AM EST 7:09 PM EST
Moon 10:58 AM EST (1/17) No Moon Set
Length of Visible Light 10h 34m
Length of Day
9h 33m
Waxing Crescent, 37% of the Moon is Illuminated
Jan 17
Waxing Crescent
Jan 18
First Quarter
Jan 26
Full
Feb 3
Last Quarter
Feb 10
New

Hourly Weather History & Observations

Time (EST) Temp. Windchill Dew Point Humidity Pressure Visibility Wind Dir Wind Speed Gust Speed Precip Events Conditions
12:15 AM 34.0 °F 27.2 °F 26.4 °F 74% 29.99 in 10.0 mi WSW 8.1 mph - N/A   Overcast
12:36 AM 34.0 °F 25.5 °F 26.6 °F 74% 29.99 in 10.0 mi WSW 11.5 mph - N/A   Overcast
12:55 AM 34.2 °F 28.2 °F 26.6 °F 74% 30.00 in 10.0 mi WSW 6.9 mph - N/A   Overcast
1:15 AM 34.2 °F 28.2 °F 26.6 °F 74% 30.01 in 10.0 mi WSW 6.9 mph - N/A   Overcast
1:36 AM 34.2 °F 30.0 °F 27.0 °F 75% 30.02 in 10.0 mi WSW 4.6 mph - N/A   Overcast
1:55 AM 34.2 °F 27.5 °F 27.3 °F 76% 30.03 in 10.0 mi WSW 8.1 mph - N/A   Overcast
2:15 AM 34.2 °F 29.0 °F 27.3 °F 76% 30.03 in 10.0 mi WSW 5.8 mph - N/A   Overcast
2:35 AM 34.3 °F 29.2 °F 27.3 °F 76% 30.04 in 10.0 mi WSW 5.8 mph - N/A   Overcast
2:55 AM 34.7 °F 29.6 °F 27.3 °F 74% 30.05 in 10.0 mi WSW 5.8 mph - N/A   Overcast
3:16 AM 34.7 °F 28.8 °F 27.5 °F 75% 30.06 in 10.0 mi West 6.9 mph - N/A   Overcast
3:35 AM 34.7 °F 30.6 °F 27.7 °F 76% 30.06 in 10.0 mi West 4.6 mph - N/A   Overcast
3:55 AM 34.7 °F 29.6 °F 27.9 °F 76% 30.06 in 10.0 mi West 5.8 mph - N/A   Overcast
4:35 AM 34.7 °F 29.6 °F 28.0 °F 77% 30.06 in 10.0 mi West 5.8 mph - N/A   Overcast
4:56 AM 34.7 °F 29.6 °F 28.0 °F 77% 30.06 in 10.0 mi West 5.8 mph - N/A   Overcast
5:15 AM 34.7 °F 28.8 °F 28.2 °F 77% 30.08 in 10.0 mi West 6.9 mph - N/A   Overcast
5:35 AM 34.0 °F 28.8 °F 28.2 °F 79% 30.08 in 10.0 mi West 5.8 mph - N/A   Overcast
5:56 AM 33.4 °F 28.1 °F 28.0 °F 81% 30.09 in 10.0 mi West 5.8 mph - N/A   Scattered Clouds
6:15 AM 33.1 °F 26.9 °F 28.0 °F 82% 30.10 in 10.0 mi West 6.9 mph - N/A   Clear
6:36 AM 32.4 °F 29.1 °F 27.5 °F 82% 30.10 in 7.0 mi West 3.5 mph - N/A   Clear
6:55 AM 32.0 °F - 27.3 °F 83% 30.11 in 7.0 mi Calm Calm - N/A   Clear
7:15 AM 30.4 °F - 26.1 °F 84% 30.12 in 7.0 mi Calm Calm - N/A   Clear
7:36 AM 31.8 °F - 27.5 °F 84% 30.13 in 7.0 mi Calm Calm - N/A   Clear
7:55 AM 31.6 °F 28.3 °F 27.1 °F 83% 30.13 in 7.0 mi West 3.5 mph - N/A   Clear
8:16 AM 31.5 °F - 27.1 °F 84% 30.14 in 5.0 mi Calm Calm - N/A   Clear
8:35 AM 31.1 °F - 26.6 °F 83% 30.14 in 5.0 mi Calm Calm - N/A   Clear
8:55 AM 31.6 °F - 27.3 °F 84% 30.15 in 5.0 mi Calm Calm - N/A   Clear
9:16 AM 32.0 °F - 27.3 °F 83% 30.16 in 7.0 mi Calm Calm - N/A   Clear
9:35 AM 32.0 °F - 27.1 °F 82% 30.17 in 7.0 mi Calm Calm - N/A   Clear
9:56 AM 32.0 °F - 27.3 °F 83% 30.18 in 7.0 mi Calm Calm - N/A   Clear
10:15 AM 33.6 °F 30.6 °F 28.0 °F 80% 30.18 in 7.0 mi SSW 3.5 mph - N/A   Clear
10:35 AM 35.4 °F - 27.7 °F 73% 30.19 in 10.0 mi Calm Calm - N/A   Clear
10:56 AM 34.9 °F 30.8 °F 25.9 °F 70% 30.20 in 10.0 mi North 4.6 mph - N/A   Scattered Clouds
11:15 AM 34.9 °F 29.0 °F 24.3 °F 65% 30.20 in 10.0 mi NW 6.9 mph - N/A   Scattered Clouds
11:35 AM 36.1 °F 31.4 °F 24.3 °F 62% 30.19 in 10.0 mi NW 5.8 mph - N/A   Scattered Clouds
11:55 AM 36.1 °F 31.4 °F 24.1 °F 62% 30.18 in 10.0 mi NNW 5.8 mph - N/A   Scattered Clouds
12:16 PM 36.5 °F 32.7 °F 23.9 °F 60% 30.17 in 10.0 mi NW 4.6 mph - N/A   Scattered Clouds
12:35 PM 37.4 °F 33.8 °F 24.3 °F 59% 30.16 in 10.0 mi NW 4.6 mph - N/A   Clear
12:55 PM 38.1 °F 32.3 °F 23.7 °F 56% 30.15 in 10.0 mi NW 8.1 mph - N/A   Scattered Clouds
1:15 PM 38.7 °F 34.3 °F 23.4 °F 54% 30.14 in 10.0 mi West 5.8 mph - N/A   Scattered Clouds
1:35 PM 39.0 °F 34.0 °F 22.8 °F 52% 30.14 in 10.0 mi West 6.9 mph - N/A   Scattered Clouds
1:56 PM 38.5 °F 32.7 °F 22.5 °F 53% 30.13 in 10.0 mi WNW 8.1 mph - N/A   Scattered Clouds
2:15 PM 39.6 °F 34.0 °F 22.5 °F 50% 30.12 in 10.0 mi West 8.1 mph - N/A   Scattered Clouds
2:36 PM 39.9 °F 32.9 °F 21.9 °F 49% 30.11 in 10.0 mi WNW 11.5 mph 17.3 mph N/A   Scattered Clouds
2:55 PM 40.1 °F 34.1 °F 21.9 °F 48% 30.10 in 10.0 mi West 9.2 mph - N/A   Scattered Clouds
3:16 PM 39.0 °F 32.3 °F 22.1 °F 51% 30.11 in 10.0 mi NW 10.4 mph 16.1 mph N/A   Scattered Clouds
3:35 PM 40.8 °F 34.5 °F 21.9 °F 47% 30.11 in 10.0 mi WNW 10.4 mph 19.6 mph N/A   Mostly Cloudy
3:56 PM 40.3 °F 34.4 °F 21.4 °F 47% 30.12 in 10.0 mi West 9.2 mph - N/A   Mostly Cloudy
4:16 PM 38.7 °F 31.4 °F 19.2 °F 46% 30.13 in 10.0 mi NW 11.5 mph 18.4 mph N/A   Scattered Clouds
4:35 PM 37.0 °F 29.3 °F 17.8 °F 46% 30.14 in 10.0 mi NW 11.5 mph 19.6 mph N/A   Clear
4:56 PM 35.8 °F 27.8 °F 18.0 °F 48% 30.15 in 10.0 mi NW 11.5 mph 21.9 mph N/A   Clear
5:15 PM 34.2 °F 25.7 °F 17.2 °F 50% 30.15 in 10.0 mi NW 11.5 mph 17.3 mph N/A   Clear
5:35 PM 32.9 °F 23.7 °F 15.6 °F 49% 30.17 in 10.0 mi NW 12.7 mph 20.7 mph N/A   Clear
5:55 PM 32.0 °F 23.6 °F 15.3 °F 50% 30.18 in 10.0 mi WNW 10.4 mph 17.3 mph N/A   Clear
6:15 PM 31.1 °F 21.9 °F 15.1 °F 52% 30.20 in 10.0 mi NW 11.5 mph 17.3 mph N/A   Clear
6:36 PM 30.2 °F 21.9 °F 15.6 °F 55% 30.22 in 10.0 mi NW 9.2 mph 18.4 mph N/A   Clear
6:55 PM 29.3 °F 17.7 °F 15.4 °F 56% 30.23 in 10.0 mi NW 16.1 mph 24.2 mph N/A   Clear
7:16 PM 27.7 °F 17.1 °F 14.0 °F 57% 30.25 in 10.0 mi WNW 12.7 mph 20.7 mph N/A   Clear
7:35 PM 27.0 °F 16.1 °F 13.1 °F 56% 30.26 in 10.0 mi NW 12.7 mph 21.9 mph N/A   Clear
7:55 PM 26.1 °F 16.8 °F 13.5 °F 59% 30.27 in 10.0 mi NW 9.2 mph 18.4 mph N/A   Clear
8:16 PM 25.2 °F 14.4 °F 13.1 °F 60% 30.28 in 10.0 mi WNW 11.5 mph 19.6 mph N/A   Clear
8:35 PM 24.6 °F 14.4 °F 12.6 °F 60% 30.30 in 10.0 mi WNW 10.4 mph 16.1 mph N/A   Clear
8:55 PM 23.9 °F 12.9 °F 9.7 °F 55% 30.30 in 10.0 mi NW 11.5 mph 21.9 mph N/A   Clear
9:16 PM 23.4 °F 11.1 °F 8.4 °F 53% 30.30 in 10.0 mi NW 13.8 mph 21.9 mph N/A   Clear
9:56 PM 22.6 °F 12.6 °F 7.7 °F 53% 30.31 in 10.0 mi NNW 9.2 mph 18.4 mph N/A   Clear
10:15 PM 22.1 °F 12.0 °F 7.9 °F 54% 30.31 in 10.0 mi NW 9.2 mph 16.1 mph N/A   Clear
10:35 PM 21.9 °F 12.5 °F 8.4 °F 56% 30.32 in 10.0 mi NW 8.1 mph - N/A   Clear
10:56 PM 21.9 °F 14.5 °F 8.1 °F 55% 30.31 in 10.0 mi NW 5.8 mph - N/A   Clear
11:15 PM 21.4 °F 16.6 °F 8.2 °F 57% 30.32 in 10.0 mi NW 3.5 mph - N/A   Scattered Clouds
11:36 PM 21.0 °F - 8.4 °F 58% 30.32 in 10.0 mi Calm Calm - N/A   Scattered Clouds
11:55 PM 21.2 °F - 9.3 °F 60% 30.32 in 10.0 mi Calm Calm - N/A   Mostly Cloudy